CST,Max TemperatureF,Mean TemperatureF,Min TemperatureF,Max Dew PointF,MeanDew PointF,Min DewpointF,Max Humidity, Mean Humidity, Min Humidity, Max Sea Level PressureIn, Mean Sea Level PressureIn, Min Sea Level PressureIn, Max VisibilityMiles, Mean VisibilityMiles, Min VisibilityMiles, Max Wind SpeedMPH, Mean Wind SpeedMPH, Max Gust SpeedMPH,PrecipitationIn, CloudCover, Events, WindDirDegrees
2012-11-1,78,68,57,60,49,36,90,59,27,30.09,30.02,29.97,10,10,10,13,6,17,T,2,,315
2012-11-2,83,68,53,66,58,48,89,70,50,30.09,30.04,30.00,10,10,6,16,5,22,0.00,0,,253
2012-11-3,83,74,64,66,64,62,93,72,51,30.14,30.09,30.05,10,9,4,14,6,23,0.00,0,,258
2012-11-4,83,72,61,65,62,55,93,67,40,30.11,30.07,30.02,10,8,2,14,8,20,T,2,,299
2012-11-5,72,63,54,55,47,35,86,57,27,30.09,30.00,29.89,10,10,10,17,4,24,0.01,3,Rain,41
2012-11-6,67,59,50,55,48,44,96,71,45,30.04,29.96,29.89,10,9,2,17,9,23,0.30,3,Rain-Thunderstorm,334
2012-11-7,67,57,46,46,41,36,86,59,32,30.13,30.04,29.95,10,10,10,17,9,23,0.00,2,,321
2012-11-8,66,55,43,42,39,37,82,58,34,30.25,30.19,30.13,10,10,10,10,6,20,0.00,0,,356
2012-11-9,69,56,42,50,45,40,96,70,44,30.31,30.25,30.21,10,10,10,9,4,,0.00,0,,76
2012-11-10,73,62,51,58,52,48,89,69,49,30.32,30.27,30.24,10,10,10,15,7,17,0.00,1,,85
2012-11-11,75,68,60,62,59,54,84,74,64,30.29,30.23,30.20,10,10,10,22,11,30,0.00,5,,111
2012-11-12,76,64,51,66,58,45,93,81,69,30.29,30.22,30.15,10,10,4,21,12,30,0.03,5,Rain,360
2012-11-13,64,53,42,44,34,30,80,55,30,30.34,30.28,30.22,10,10,10,21,11,32,0.00,0,,1
2012-11-14,68,55,42,53,44,32,86,71,56,30.27,30.23,30.18,10,10,8,10,6,15,0.00,2,,15
2012-11-15,65,57,49,52,47,44,86,69,52,30.26,30.22,30.18,10,10,10,12,6,20,0.00,4,,26
2012-11-16,55,51,47,47,45,44,93,83,72,30.29,30.25,30.21,10,10,9,12,5,16,0.00,5,,19
2012-11-17,67,55,43,45,42,37,93,67,40,30.34,30.29,30.25,10,10,6,14,7,18,0.00,0,,23
2012-11-18,71,59,46,48,42,37,72,56,40,30.32,30.27,30.23,10,10,10,10,6,17,0.00,0,,20
2012-11-19,74,62,49,49,46,42,77,58,38,30.27,30.23,30.17,10,10,10,14,4,21,0.00,0,,17
2012-11-20,72,59,46,51,48,43,93,71,49,30.21,30.15,30.10,10,10,5,12,5,14,0.00,1,,351
2012-11-21,76,62,47,50,48,44,93,66,38,30.20,30.15,30.11,10,10,5,13,5,20,0.00,0,,333
2012-11-22,76,63,50,53,49,46,86,61,36,30.25,30.20,30.16,10,10,7,10,4,15,0.00,0,,336
2012-11-23,76,64,51,55,50,45,93,63,33,30.27,30.19,30.13,10,9,4,16,7,21,0.00,0,,295
2012-11-24,63,52,41,53,33,27,86,57,27,30.26,30.19,30.15,10,10,10,17,9,22,0.00,0,,348
2012-11-25,61,48,35,44,34,25,86,57,28,30.26,30.18,30.14,10,10,10,13,3,16,0.00,0,,73
2012-11-26,68,56,43,60,51,42,93,78,62,30.22,30.16,30.14,10,10,7,13,6,15,T,2,Rain,92
2012-11-27,68,61,54,65,60,50,97,91,84,30.27,30.16,30.09,10,8,2,24,7,32,0.89,8,Rain,283
2012-11-28,64,55,46,50,43,37,89,64,39,30.39,30.33,30.26,10,10,7,16,8,20,0.00,4,,355
2012-11-29,65,54,43,49,45,39,93,75,56,30.39,30.33,30.28,10,8,3,9,4,14,0.00,3,,32
2012-11-30,70,60,50,59,54,47,89,75,61,30.31,30.26,30.22,10,9,6,8,5,17,0.00,6,,60